Regional Weather Roundup
Issued by NWS

Home | Current Version | Previous Version | Graphics & Text | Print | Product List | Glossary On
Versions: 1 2 3 4 5 6 7 8 9 10 11 12 13 14 15 16 17 18 19 20 21 22 23 24 25 26 27 28 29 30 31 32 33 34 35 36 37 38 39 40 41 42 43 44 45 46 47 48 49 50
000
ASUS43 KMPX 230901
RWRMN
WEATHER ROUNDUP FOR MINNESOTA
NATIONAL WEATHER SERVICE TWIN CITIES/CHANHASSEN MN
400 AM CDT WED MAY 23 2018


NOTE: "FAIR" INDICATES FEW OR NO CLOUDS BELOW 12,000 FEET WITH NO
SIGNIFICANT WEATHER AND/OR OBSTRUCTIONS TO VISIBILITY. N/A MEANS
CURRENT SKY AND/OR WEATHER CONDITIONS ARE NOT AVAILABLE.

MNZ060>063-068>070-231000-
   Twin Cities Metro

CITY           SKY/WX    TMP DP  RH WIND       PRES   REMARKS
TWIN CITIES    MOCLDY    62  59  90 SE6       30.09R
ST PAUL        FAIR      59  57  93 SE5       30.10R
CRYSTAL        FAIR      61  57  87 SE5       30.08R
BLAINE         FAIR      59  57  94 SE3       30.09R
LAKEVILLE      FAIR      55  55 100 E5        30.09R
EDEN PRAIRIE   FAIR      64  57  78 E6        30.07R
SOUTH ST PAUL  FAIR      60  59  95 CALM      30.10R
LAKE ELMO      FAIR      55  55 100 CALM      30.11R FOG
$$
MNZ001>005-007-008-013>017-022>024-027-028-231000-
   Northwest Minnesota

CITY           SKY/WX    TMP DP  RH WIND       PRES   REMARKS
BEMIDJI        FOG       50  48  93 CALM      30.04F VSB 3/4
HALLOCK        FAIR      63  55  77 SE8       29.99F
ROSEAU         FAIR      59  54  82 S3        30.03F
WARROAD        FAIR      57  54  88 CALM      30.04S
THIEF RVR FALL FAIR      59  54  83 SE3       30.03F
CROOKSTON      FAIR      61  54  77 SE7       30.01S
FOSSTON        FAIR      55  48  76 CALM      30.04S
DETROIT LAKES  FAIR      61  54  77 SE6       30.03F
MOORHEAD       FAIR      63  55  77 SE6       29.99S
PARK RAPIDS    FAIR      56  52  86 CALM      30.05S
MAHNOMEN       FAIR      60  55  81 SE7       30.02F
$$
MNZ006-009>011-018-025>026-231000-
   North Central Minnesota

CITY           SKY/WX    TMP DP  RH WIND       PRES   REMARKS
BAUDETTE       FAIR      53  52  96 E3        30.05R
FLAG ISLAND    FAIR      57  54  88 CALM      30.03S
INTL FALLS     FAIR      49  46  90 CALM      30.06R
WASKISH          N/A     52  52 100 CALM      30.05F
BIG FORK       FAIR      48  46  93 CALM      30.07S
LONGVILLE      FAIR      48  48 100 CALM      30.06S
GRAND RAPIDS   FAIR      51  50  96 NE3       30.09S FOG
CRANE LAKE     FAIR      43  43 100 CALM      30.09R
ORR            FAIR      54  50  87 CALM      30.05S
COOK           FAIR      48  46  93 CALM      30.09S
WALKER         FAIR      53  53  99 CALM      30.05S
$$
MNZ012-019>021-037-231000-
   Northeast Minnesota

CITY           SKY/WX    TMP DP  RH WIND       PRES   REMARKS
DULUTH         FAIR      54  51  90 CALM      30.09R
ELY            FAIR      52  48  87 CALM      30.08S
HIBBING        FAIR      46  45  96 CALM      30.08R
EVELETH        FAIR      48  48 100 CALM      30.09F
DULUTH HARBOR  FAIR      57  55  94 SW5       30.08R
TWO HARBORS    FAIR      63  55  77 W3        30.06S
SILVER BAY     FAIR      52  50  93 CALM      30.06R
GRAND MARAIS     N/A     44  41  89 CALM      30.04R
G MARAIS ARPRT FAIR      48  41  76 W3        30.09R
$$
MNZ029>031-032-039>041-046>048-054>057-064-231000-
   West Central Minnesota

CITY           SKY/WX    TMP DP  RH WIND       PRES   REMARKS
FERGUS FALLS   FAIR      66  55  68 SE10      29.97R
WHEATON        CLOUDY    63  55  77 SE12      30.01R
MORRIS         PTCLDY    64  57  77 SE10      30.01R
ALEXANDRIA     FAIR      63  55  75 SE9       30.05R
ELBOW LAKE     FAIR      63  56  79 SE12      30.02R
WADENA         FAIR      55  54  94 E6        30.04S
GLENWOOD       FAIR      59  57  94 SE8       30.05R
APPLETON       CLOUDY    66  57  72 SE10      30.00R
BENSON         CLOUDY    64  57  77 SE9G16    30.04R
ORTONVILLE     CLOUDY    63  55  77 SE10      30.00R
MADISON        CLOUDY    68  59  73 SE10      30.00R
WILLMAR        FAIR      63  57  82 SE12      30.06R
$$
MNZ033>034-036-042>043-049>051-058-059-231000-
   Central Minnesota

CITY           SKY/WX    TMP DP  RH WIND       PRES   REMARKS
ST CLOUD       FAIR      55  54  96 SE5       30.07R
SAUK CENTRE    FAIR      56  54  93 E6        30.06R
PAYNESVILLE    FAIR      62  59  89 SE10      30.06S
PINE RIVER     FAIR      46  45  93 CALM      30.09S
BRAINERD       FAIR      53  51  93 CALM      30.07R FOG
STAPLES        FAIR      54  52  94 CALM      30.05R
LONG PRAIRIE   FAIR      57  54  88 E5        30.06R
LITTLE FALLS   FAIR      57  55  94 CALM      30.06S
LITCHFIELD     FAIR      63  61  94 SE7       30.06S
BUFFALO        FAIR      63  56  80 E6        30.08S
MAPLE LAKE     FAIR      64  59  86 SE3       30.08R
HUTCHINSON     FAIR      62  59  91 E7        30.06F
$$
MNZ037-044-045-052-053-231000-
   East Central Minnesota

CITY           SKY/WX    TMP DP  RH WIND       PRES   REMARKS
PRINCETON      FAIR      55  54  94 CALM      30.08R
MORA             N/A     48  46  93 CALM      30.10R FOG
CAMBRIDGE      FAIR      61  54  77 SE3       30.09R
RUSH CITY      FOG       51  50  96 CALM      30.09R VSB 1
MOOSE LAKE     FAIR      46  45  93 CALM      30.06S FOG
HINCKLEY       FAIR      46  46 100 CALM      30.09R
CLOQUET        FAIR      50  46  87 CALM      30.08S
MCGREGOR       FAIR      46  45  93 CALM      30.08R
$$
MNZ071>073-080-081-089-090-097-098-231000-
   Southwest Minnesota

CITY           SKY/WX    TMP DP  RH WIND       PRES   REMARKS
MONTEVIDEO     CLOUDY    63  57  82 S9        30.02R
GRANITE FALLS  CLOUDY    66  60  81 SE10      30.03S THUNDER
CANBY          CLOUDY    65  58  77 SE8       30.02R
MARSHALL       CLOUDY    64  62  93 CALM      30.01S THUNDER
REDWOOD FALLS  CLOUDY    64  60  87 E7        30.01F
OLIVIA         CLOUDY    63  59  88 SE9       30.03R
PIPESTONE      PTCLDY    66  63  88 SE15      30.02R
WINDOM         RAIN      61  46  59 E7        30.05R
WORTHINGTON    PTCLDY    64  61  90 E14       30.05R
JACKSON        CLOUDY    61  61 100 E12       30.14R
TRACY          TSTM      65  64  96 S10       30.02R
SLAYTON        CLOUDY    64  62  91 E13       30.04R
$$
MNZ065>067-074>077-082>085-091>093-231000-
   South Central Minnesota

CITY           SKY/WX    TMP DP  RH WIND       PRES   REMARKS
MANKATO        MOCLDY    64  59  83 SE10      30.07R
NEW ULM        CLOUDY    66  59  77 SE10      30.04S
ST JAMES         N/A     64  63  94 SE6       30.08R
FAIRMONT       RAIN      63  61  93 SW9       30.09R
GLENCOE        FAIR      63  60  91 E9        30.06S
FARIBAULT      MOCLDY    61  57  88 CALM      30.08
OWATONNA       FAIR      63  57  82 SE10      30.09R
WASECA         CLOUDY    63  55  77 SE8       30.09R
ALBERT LEA     DRIZZLE   61  59  94 SE6       30.09R
$$
MNZ078>079-086>088-094>096-231000-
   Southeast Minnesota

CITY           SKY/WX    TMP DP  RH WIND       PRES   REMARKS
ROCHESTER      FAIR      57  57 100 SE9       30.11R
RED WING       MOCLDY    55  54  94 CALM      30.10R FOG
STANTON        FAIR      62  58  84 SE3       30.08S
DODGE CENTER   MOCLDY    57  55  94 SE9       30.10R
WINONA         CLOUDY    54  54 100 CALM      30.10R
AUSTIN         CLOUDY    63  57  82 CALM      30.10R
PRESTON        FAIR      57  55  92 S5        30.13R
$$
ABBREVIATIONS USED IN REMARKS
   TC - TEMPERATURES IN CELSIUS
  WCI - WIND CHILL INDEX
   HX - HEAT INDEX
  VSB - VISIBILITY
$$




USA.gov is the U.S. government's official web portal to all federal, state and local government web resources and services.